Regional Weather Roundup
Issued by NWS Binghamton, NY

Home | Current Version | Previous Version | Text Only | Print | Product List | Glossary On
Versions: 1 2 3 4 5 6 7 8 9 10 11 12 13 14 15 16 17 18 19 20 21 22 23 24 25 26 27 28 29 30 31 32 33 34 35 36 37 38 39 40 41 42 43 44 45 46 47 48 49 50
000
ASUS41 KBGM 261010
RWRBGM
RWRBGM
BINGHAMTON REGIONAL WEATHER ROUNDUP
NATIONAL WEATHER SERVICE BINGHAMTON NY
600 AM EDT TUE MAY 26 2015

Note: "fair" indicates few or no clouds below 12,000 feet with no
significant weather and/or obstructions to visibility.

* = Station(s) that does not report precipitation, such as rain,
snow, etc, also no thunder or fog.

!NYZ009-015>018-022>025-036-037-044>046-055>057-062-261100
...CENTRAL NEW YORK...

CITY           SKY/WX    TMP DP  RH WIND       PRES   REMARKS
BINGHAMTON     MOCLDY    66  58  75 S7        30.15R
CORTLAND       FAIR      66  59  77 SW3       30.14R
DANSVILLE      MOCLDY    65  60  84 CALM      30.11R
ELMIRA         MOCLDY    70  62  76 W5        30.13R
ITHACA         PTCLDY    69  59  70 SW9       30.15R
MONTICELLO     PTCLDY    57  55  94 CALM      30.21R
NORWICH        CLEAR     70  57  64 S5        30.14S
ONEONTA        CLEAR     66  55  68 SW7       30.16R
PENN YAN       PTCLDY    65  59  81 CALM      30.11R
ROME           MOCLDY    70  59  68 SW5       30.08R
SIDNEY         CLOUDY    70  61  73 W5        30.14S
SYRACUSE       CLOUDY    73  59  61 SW10      30.07R
$$

!PAZ038>040-043-044-047-048-072-261100
...NORTHEAST PENNSYLVANIA...

CITY           SKY/WX    TMP DP  RH WIND       PRES   REMARKS
HAZLETON       CLEAR     57  55  94 CALM      30.24S
SCRANTON       PTCLDY    67  57  70 SW3       30.17S
$$
&&
KEY
WCI = WIND CHILL INDEX
VSB = VISIBILITY
HX  = HEAT INDEX
$$



USA.gov is the U.S. government's official web portal to all federal, state and local government web resources and services.